[[{"header":{"parameterUnit":"m.s-1","parameterCategory":1,"la1":30.2991,"la2":30.254,"lo1":-89.0895,"lo2":-89.0444,"dy":0.0017,"dx":0.0017,"nx":28,"ny":28,"refTime":"2023-08-25T03:00:00:Z","depth":0,"parameterNumber":2,"parameterNumberName":"U-component_of_WINDS"},"data":[0,0,0,0,0,0,0,0,0,0,0,0,0,0,0,0,0,0,0,0,0,0,0,0,0,0,0,0,0,0,0,0,0,0,0,0,0,0,0,0,0,0,0,0,0,0,0,0,0,0,0,0,0,0,0,0,0,0,0.2111,0.2113,0,0.2298,0.2301,0.2303,0.2396,0.2396,0.2396,0.2396,0.2592,0.2597,0.2602,0,0,0,0,0,0,0,0,0,0,0,0,0,0.1834,0.1838,0.2111,0.2113,0.2115,0.2298,0.2301,0.2303,0.2396,0.2396,0.2396,0.2396,0.259,0.2596,0.2602,0,0,0,0,0,0,0,0,0,0,0,0,0,0.1981,0.184,0.211,0.2184,0.2192,0.2298,0.2301,0.2304,0.2396,0.2396,0.2396,0.2396,0.2588,0.2595,0.2603,0.2651,0,0,0.2627,0.263,0,0,0,0,0,0,0,0,0.1973,0.1991,0.2171,0.2179,0.2188,0.2324,0.2275,0.242,0.2396,0.2319,0.2396,0.2396,0.2503,0.2517,0.2553,0.266,0.2668,0.2628,0.2632,0.2636,0.2638,0,0,0,0,0,0,0,0.1962,0.1984,0.2185,0.2173,0.2184,0.2208,0.2228,0.2303,0.2408,0.2325,0.2333,0.2353,0.2508,0.2545,0.2558,0.2671,0.2627,0.2634,0.2639,0.2642,0.2825,0.2826,0,0,0,0,0,0,0.194,0.1974,0.2179,0.2191,0.2078,0.2212,0.2236,0.228,0.2408,0.2427,0.2353,0.2357,0.2532,0.2549,0.2565,0.2629,0.2636,0.2643,0.2647,0.2825,0.2826,0.2826,0,0,0,0,0,0,0.1934,0.1957,0.2172,0.2085,0.2114,0.2217,0.2266,0.2284,0.2322,0.2429,0.2448,0.2372,0.2532,0.2554,0.2628,0.2637,0.2646,0.2654,0.2825,0.2825,0.2826,0.2756,0,0,0,0,0,0,0.1925,0.1954,0.1974,0.2084,0.2118,0.2231,0.2267,0.2288,0.2334,0.2341,0.2452,0.247,0.2534,0.2616,0.2636,0.2648,0.266,0.2825,0.2825,0.2826,0.2758,0.2754,0.275,0,0,0,0,0,0.1915,0.1948,0.1974,0.1998,0.2144,0.2231,0.2251,0.2323,0.2335,0.2355,0.2423,0.2466,0.2632,0.2623,0.2646,0.266,0.2825,0.2825,0.2826,0.276,0.2755,0.275,0,0,0,0,0,0,0.1837,0.1964,0.1994,0.2064,0.2136,0.2247,0.2275,0.2315,0.2387,0.239,0.2478,0.2502,0.2567,0.2622,0.2609,0.2712,0.2733,0.2738,0.2675,0.2671,0.2667,0.2653,0.2666,0,0,0,0,0,0.1827,0.1887,0.1995,0.2046,0.208,0.217,0.2211,0.226,0.2339,0.237,0.2445,0.252,0.2589,0.2633,0.2703,0.2766,0.2791,0.2787,0.2783,0.2779,0.2783,0.2819,0.2818,0.2827,0.2827,0.2827,0,0,0.1809,0.1886,0.1919,0.2032,0.2093,0.2153,0.2196,0.2258,0.2303,0.2381,0.2454,0.2511,0.2601,0.2669,0.2703,0.2716,0.2786,0.278,0.2776,0.2782,0.2819,0.2818,0.2817,0.2827,0.2827,0.2827,0,0,0.1807,0.187,0.1919,0.1979,0.2071,0.2131,0.2142,0.2247,0.2287,0.2362,0.242,0.2475,0.2593,0.2654,0.27,0.2717,0.2759,0.2737,0.2718,0.2752,0.2751,0.2751,0.2756,0.2757,0.2741,0.274,0.274,0,0.1773,0.1865,0.1939,0.1997,0.2045,0.2115,0.2165,0.222,0.233,0.2362,0.2374,0.2522,0.2587,0.267,0.2673,0.2709,0.2725,0.2726,0.2745,0.2746,0.2747,0.2753,0.2754,0.2737,0.2738,0.2738,0.2738,0,0.1818,0.1881,0.1909,0.2012,0.2063,0.2116,0.2199,0.2241,0.2285,0.2343,0.2417,0.2498,0.2584,0.2607,0.2652,0.2696,0.2701,0.2728,0.275,0.2741,0.2748,0.2751,0.2732,0.2734,0.2735,0.2735,0,0,0.1774,0.1915,0.1924,0.197,0.2076,0.2126,0.2182,0.2265,0.2299,0.2372,0.2421,0.2517,0.2542,0.2595,0.2646,0.2676,0.2683,0.27,0.2703,0.2693,0.2735,0.2714,0.2715,0.271,0.2711,0.2712,0.2727,0,0.1786,0.1889,0.1956,0.2033,0.2091,0.2157,0.2206,0.2276,0.2331,0.2388,0.245,0.2516,0.2544,0.2576,0.2608,0.2675,0.2692,0.2675,0.2757,0.2759,0.2733,0.2719,0.2698,0.2709,0.2731,0.2731,0.2732,0,0.1815,0.1883,0.1965,0.2062,0.2089,0.2131,0.2212,0.2266,0.2346,0.2383,0.244,0.2492,0.2553,0.2569,0.2655,0.2641,0.2679,0.2716,0.2718,0.2729,0.2745,0.273,0.2714,0.2715,0.2737,0.2736,0.2736,0,0.1773,0.1887,0.195,0.1988,0.2102,0.213,0.218,0.2259,0.2304,0.2374,0.2404,0.248,0.2522,0.258,0.2651,0.2656,0.2729,0.2751,0.2762,0.276,0.2776,0.2774,0.2765,0.2799,0.2799,0.2799,0.2799,0,0.178,0.1827,0.1933,0.1971,0.2026,0.2102,0.2154,0.2209,0.2278,0.2329,0.2391,0.2437,0.2527,0.2584,0.264,0.2702,0.2721,0.2753,0.2767,0.2748,0.2743,0.2774,0.2775,0.2799,0.2799,0.2799,0.2799,0,0.1744,0.1816,0.1889,0.1991,0.2017,0.2053,0.214,0.218,0.2236,0.2299,0.2319,0.2409,0.2479,0.2554,0.2651,0.2688,0.2747,0.2767,0.2719,0.2727,0.2734,0.2732,0.2745,0.275,0.2779,0.2779,0.2779,0,0.1744,0.1781,0.1886,0.1923,0.197,0.203,0.2075,0.2151,0.2195,0.2287,0.2316,0.239,0.2454,0.2562,0.2637,0.271,0.2733,0.2732,0.2744,0.2722,0.2732,0.2729,0.2732,0.2728,0.2728,0.2727,0.2727,0,0.1735,0.1769,0.1831,0.1905,0.1956,0.2018,0.2083,0.211,0.2199,0.2245,0.2317,0.2365,0.2462,0.2535,0.2616,0.2668,0.2712,0.2722,0.2728,0.2709,0.2679,0.2694,0.2709,0.2722,0.2722,0.2722,0.2723,0.2723,0.1718,0.1753,0.1831,0.1898,0.1954,0.2012,0.2054,0.2115,0.2175,0.2259,0.23,0.237,0.2448,0.2561,0.2611,0.2667,0.2681,0.269,0.2693,0.2694,0.2688,0.2669,0.2683,0.2683,0.2683,0.2683,0.2683,0,0.1712,0.1765,0.1825,0.1912,0.1964,0.1999,0.2071,0.2113,0.2174,0.2241,0.2301,0.2382,0.2452,0.253,0.2605,0.2635,0.2657,0.2652,0.2651,0.2661,0.2672,0.2659,0.2633,0.2633,0.2633,0.2633,0.2633,0.2633,0.1715,0.1777,0.1819,0.1908,0.1961,0.203,0.2068,0.2121,0.2175,0.2262,0.232,0.237,0.2441,0.2521,0.2586,0.2608,0.2632,0.2621,0.2648,0.2657,0.2661,0.2665,0.2653,0.2626,0.2626,0.2633,0.2633,0.2633]},{"header":{"parameterUnit":"m.s-1","parameterCategory":1,"la1":30.2991,"la2":30.254,"lo1":-89.0895,"lo2":-89.0444,"dy":0.0017,"dx":0.0017,"nx":28,"ny":28,"refTime":"2023-08-25T03:00:00:Z","depth":0,"parameterNumber":3,"parameterNumberName":"V-component_of_WINDS"},"data":[0,0,0,0,0,0,0,0,0,0,0,0,0,0,0,0,0,0,0,0,0,0,0,0,0,0,0,0,0,0,0,0,0,0,0,0,0,0,0,0,0,0,0,0,0,0,0,0,0,0,0,0,0,0,0,0,0,0,3.4023,3.4023,0,3.4007,3.4006,3.4006,3.4036,3.4037,3.4038,3.4039,3.4015,3.4014,3.4012,0,0,0,0,0,0,0,0,0,0,0,0,0,3.4074,3.4073,3.4023,3.4023,3.4023,3.4007,3.4006,3.4006,3.4036,3.4037,3.4038,3.4039,3.4016,3.4014,3.4012,0,0,0,0,0,0,0,0,0,0,0,0,0,3.4054,3.4072,3.4023,3.4036,3.4037,3.4007,3.4006,3.4006,3.4035,3.4037,3.4038,3.404,3.4017,3.4014,3.4012,3.3967,0,0,3.4005,3.4004,0,0,0,0,0,0,0,0,3.4055,3.4052,3.4034,3.4035,3.4036,3.4025,3.4016,3.3993,3.4035,3.4036,3.4039,3.4041,3.4017,3.4015,3.4008,3.3966,3.3965,3.4005,3.4003,3.4002,3.4002,0,0,0,0,0,0,0,3.4056,3.4053,3.4016,3.4034,3.4035,3.404,3.4039,3.4012,3.4018,3.4036,3.4038,3.4036,3.4018,3.401,3.4008,3.3965,3.4005,3.4003,3.4001,3.4,3.3883,3.3882,0,0,0,0,0,0,3.4057,3.4054,3.4017,3.4016,3.4049,3.4038,3.4037,3.4027,3.4018,3.4019,3.4035,3.4037,3.4014,3.401,3.4007,3.3953,3.4002,3.4,3.3999,3.3885,3.3883,3.3881,0,0,0,0,0,0,3.4058,3.4053,3.4018,3.4035,3.4031,3.4035,3.4024,3.4026,3.4018,3.4018,3.4018,3.4026,3.4015,3.401,3.3977,3.3952,3.3999,3.3997,3.3887,3.3885,3.3882,3.3844,0,0,0,0,0,0,3.4059,3.4054,3.4038,3.4035,3.403,3.399,3.4023,3.4024,3.4015,3.4018,3.401,3.401,3.4015,3.398,3.3975,3.395,3.3995,3.3889,3.3886,3.3883,3.3848,3.3841,3.3835,0,0,0,0,0,3.4061,3.4027,3.4037,3.4032,3.4011,3.3988,3.3985,3.3994,3.4013,3.3996,3.3996,3.401,3.3957,3.3977,3.3971,3.3945,3.3891,3.3887,3.3883,3.3851,3.3842,3.3835,0,0,0,0,0,0,3.4025,3.4027,3.4038,3.4002,3.3995,3.3993,3.3972,3.3985,3.3971,3.3974,3.3985,3.3982,3.3946,3.3942,3.3965,3.39,3.3926,3.3921,3.3904,3.3896,3.3889,3.389,3.3993,0,0,0,0,0,3.4013,3.3996,3.3998,3.3966,3.3962,3.3968,3.3958,3.3966,3.3958,3.3955,3.3952,3.3941,3.3922,3.3909,3.3891,3.3848,3.3845,3.3827,3.3821,3.3815,3.381,3.3785,3.3776,3.3869,3.3869,3.3869,0,0,3.3988,3.3987,3.3975,3.3959,3.3954,3.3934,3.3965,3.3943,3.3927,3.395,3.3919,3.3916,3.3905,3.3867,3.3849,3.3862,3.3784,3.3811,3.3806,3.3804,3.378,3.3771,3.3763,3.3866,3.3867,3.3867,0,0,3.3931,3.393,3.3903,3.3898,3.3891,3.3895,3.3889,3.3885,3.3885,3.3854,3.387,3.3851,3.3818,3.381,3.3801,3.3741,3.3753,3.3735,3.37,3.3676,3.3668,3.3662,3.3638,3.363,3.373,3.373,3.373,0,3.39,3.3873,3.3886,3.3863,3.3855,3.3877,3.3848,3.3842,3.3829,3.3821,3.3837,3.3796,3.379,3.3749,3.3734,3.3727,3.3718,3.3735,3.3669,3.3662,3.3657,3.3634,3.3626,3.3728,3.3728,3.3728,3.3729,0,3.3833,3.3814,3.3793,3.3782,3.3771,3.3745,3.3753,3.374,3.3749,3.375,3.3718,3.3712,3.3693,3.3684,3.3692,3.3643,3.3651,3.3668,3.3694,3.3645,3.3624,3.3616,3.3725,3.3725,3.3726,3.3727,0,0,3.3752,3.375,3.3741,3.3736,3.373,3.3715,3.3689,3.3673,3.366,3.3651,3.3627,3.36,3.3615,3.3605,3.3612,3.3591,3.3541,3.3609,3.3609,3.3595,3.3484,3.347,3.346,3.355,3.3549,3.3547,3.3484,0,3.3694,3.3652,3.3664,3.3621,3.3602,3.3623,3.36,3.3593,3.3594,3.3577,3.3577,3.3556,3.3579,3.3573,3.3553,3.3551,3.3519,3.3556,3.3526,3.3524,3.3526,3.345,3.3435,3.3376,3.3477,3.3475,3.3474,0,3.3621,3.361,3.3566,3.3563,3.3555,3.3535,3.352,3.3504,3.3496,3.3498,3.3487,3.3498,3.347,3.3499,3.3459,3.3485,3.3473,3.347,3.3468,3.3463,3.3495,3.3441,3.3358,3.3348,3.3462,3.3463,3.3464,0,3.3563,3.3538,3.3508,3.3503,3.3499,3.3484,3.3481,3.3475,3.3464,3.345,3.3443,3.3426,3.3416,3.3401,3.3406,3.3427,3.3365,3.3394,3.3363,3.3363,3.3347,3.3347,3.3258,3.3343,3.3344,3.3344,3.3344,0,3.3496,3.3467,3.3482,3.3462,3.343,3.3444,3.3411,3.341,3.3404,3.3384,3.3401,3.3381,3.3391,3.3371,3.3375,3.334,3.3335,3.3334,3.3335,3.3331,3.3331,3.3322,3.3325,3.3341,3.3342,3.3342,3.3343,0,3.3425,3.3434,3.3402,3.3402,3.3401,3.3377,3.3376,3.3357,3.336,3.3334,3.3328,3.3332,3.3309,3.3314,3.3289,3.3291,3.3247,3.3254,3.325,3.3251,3.3219,3.3221,3.3118,3.3105,3.3201,3.32,3.3199,0,3.3381,3.336,3.3358,3.3346,3.3343,3.3324,3.3314,3.3326,3.3313,3.3302,3.3284,3.3264,3.3248,3.321,3.3209,3.3189,3.3194,3.316,3.3191,3.3187,3.319,3.3191,3.3188,3.3152,3.3151,3.315,3.315,0,3.33,3.3306,3.3291,3.3278,3.3265,3.3254,3.3245,3.3234,3.3245,3.323,3.3208,3.3196,3.3171,3.3149,3.3131,3.3126,3.3138,3.3141,3.3132,3.3126,3.3124,3.3122,3.323,3.3142,3.3143,3.3143,3.3144,3.3144,3.324,3.3221,3.3217,3.3199,3.3194,3.3185,3.3167,3.3169,3.3152,3.3133,3.3141,3.3115,3.3106,3.3084,3.3076,3.3055,3.3067,3.3055,3.3051,3.3048,3.3043,3.313,3.3051,3.3052,3.3052,3.3052,3.3052,0,3.3158,3.3157,3.3141,3.3128,3.3114,3.3131,3.3121,3.3107,3.3085,3.3077,3.3061,3.3035,3.3014,3.3012,3.2991,3.2974,3.2979,3.2968,3.2968,3.2966,3.3034,3.3042,3.2964,3.2964,3.2964,3.2964,3.2964,3.2965,3.3114,3.3083,3.3088,3.3054,3.3052,3.3029,3.3021,3.3012,3.3006,3.2977,3.296,3.296,3.2953,3.2932,3.2913,3.2913,3.2903,3.2889,3.2891,3.2953,3.2962,3.297,3.2978,3.2888,3.2888,3.2825,3.2824,3.2824]}]]